Location: Ash Swamp
(41.5170°N, 74.6157°W)
Time: 01:33:37
(UTC+00:00)

Gblst 52 Del rocket - Visible Passes

Search period start: 24 October 2020 00:00
Search period end: 03 November 2020 00:00
Orbit: 805 x 1365 km, 51.5° (Epoch: 23 October)

Date Brightness Start Highest point End Pass type
(mag) Time Alt. Az. Time Alt. Az. Time Alt. Az.
25 Oct 6.0 10:23:51 10° SSW 10:28:55 35° SE 10:34:29 10° ENE visible
26 Oct 6.6 09:33:21 10° S 09:37:25 21° SE 09:41:44 10° E visible
27 Oct 6.9 08:44:30 10° SE 08:46:01 11° ESE 08:47:34 10° ESE visible
27 Oct 4.8 10:31:01 10° SW 10:36:34 63° SE 10:42:47 10° ENE visible
28 Oct 5.5 09:39:45 10° SSW 09:44:54 39° SE 09:50:31 10° ENE visible
29 Oct 6.1 08:50:21 15° SSE 08:53:22 24° SE 08:57:57 10° ENE visible
29 Oct 4.3 10:38:49 10° WSW 10:44:29 79° NNW 10:50:51 10° NE visible
30 Oct 6.7 08:01:32 13° SE 08:01:56 13° ESE 08:04:31 10° E visible
30 Oct 4.4 09:48:33 19° SW 09:52:37 71° SE 09:58:45 10° ENE visible
31 Oct 5.0 08:59:35 38° S 09:00:55 45° SE 09:06:34 10° ENE visible
31 Oct 4.6 10:47:05 10° W 10:52:38 52° NNW 10:58:52 10° NE visible
01 Nov 6.0 08:10:30 25° ESE 08:10:30 25° ESE 08:14:08 10° ENE visible
01 Nov 4.2 09:57:29 28° WSW 10:00:35 71° NNW 10:06:47 10° NE visible
02 Nov 4.1 09:08:17 75° SSW 09:08:42 80° SE 09:14:43 10° ENE visible
02 Nov 5.0 10:55:36 10° W 11:00:58 39° NNW 11:06:58 10° NE visible
